Weather History for Northeast Philadelphia, PA

Change the Weather History Date:

Thursday, November 7, 2013

  Actual Average Record
Temperature  
Mean Temperature 53 °F -  
Max Temperature 63 °F 55 °F 73 °F (1996)
Min Temperature 43 °F 37 °F 28 °F (1998)
Degree Days  
Heating Degree Days 12    
Growing Degree Days 3 (Base 50)    
Moisture  
Dew Point 51 °F    
Average Humidity 80    
Maximum Humidity 90    
Minimum Humidity 63    
Precipitation  
Precipitation 0.03 in - - ()
Sea Level Pressure  
Sea Level Pressure 29.92 in    
Wind  
Wind Speed 8 mph (West)    
Max Wind Speed 22 mph    
Max Gust Speed 33 mph    
Visibility 10 miles    
Events Rain    
Averages and records for this station are not official NWS values.
T = Trace of Precipitation, MM = Missing Value Source: NWS Daily Summary

Daily Weather History Graph

Daily Weather History Graph

Search for Another Location

Airport:

Trip Planner

Search our weather history database for the weather conditions in past years. The results will help you decide how hot, cold, wet, or windy it might be!

Date:

Astronomy

Nov. 07, 2013 Rise Set
Actual Time 6:36 AM EST 4:50 PM EST
Civil Twilight 6:07 AM EST 5:19 PM EST
Nautical Twilight 5:35 AM EST 5:51 PM EST
Astronomical Twilight 5:03 AM EST 6:23 PM EST
Moon 10:43 AM EST (11/7) 8:59 PM EST (11/7)
Length of Visible Light 11h 11m
Length of Day
10h 14m
Waxing Crescent, 22% of the Moon is Illuminated
Nov 7
Waxing Crescent
Nov 10
First Quarter
Nov 17
Full
Nov 25
Last Quarter
Dec 2
New

Hourly Weather History & Observations

Time (EST) Temp. Windchill Dew Point Humidity Pressure Visibility Wind Dir Wind Speed Gust Speed Precip Events Conditions
12:29 AM 60.8 °F - 55.4 °F 82% 30.08 in 10.0 mi SW 3.5 mph - N/A   Mostly Cloudy
12:54 AM 60.1 °F - 55.0 °F 83% 30.07 in 10.0 mi Calm Calm - N/A   Overcast
1:54 AM 61.0 °F - 55.9 °F 83% 30.03 in 10.0 mi SSW 5.8 mph - N/A   Overcast
2:40 AM 60.8 °F - 57.2 °F 88% 30.01 in 10.0 mi SSW 6.9 mph - N/A   Overcast
2:54 AM 62.1 °F - 57.0 °F 84% 30.00 in 10.0 mi SSW 11.5 mph 16.1 mph N/A   Overcast
3:54 AM 62.1 °F - 57.9 °F 86% 29.97 in 10.0 mi SW 12.7 mph 17.3 mph N/A   Overcast
4:32 AM 62.6 °F - 57.2 °F 82% 29.95 in 10.0 mi SSW 11.5 mph 20.7 mph N/A   Overcast
4:54 AM 62.1 °F - 57.9 °F 86% 29.95 in 10.0 mi SW 13.8 mph 23.0 mph N/A   Overcast
5:54 AM 62.1 °F - 57.9 °F 86% 29.91 in 10.0 mi SW 12.7 mph 21.9 mph N/A   Overcast
6:07 AM 62.6 °F - 57.2 °F 82% 29.90 in 10.0 mi SW 10.4 mph 18.4 mph N/A   Overcast
6:54 AM 61.0 °F - 57.9 °F 90% 29.90 in 10.0 mi SW 8.1 mph - N/A   Overcast
7:54 AM 63.0 °F - 57.0 °F 81% 29.91 in 10.0 mi SW 10.4 mph - N/A   Overcast
8:49 AM 62.6 °F - 57.2 °F 82% 29.91 in 10.0 mi SW 9.2 mph 17.3 mph N/A   Overcast
8:54 AM 63.0 °F - 57.0 °F 81% 29.91 in 10.0 mi SW 9.2 mph - N/A   Overcast
9:20 AM 62.6 °F - 55.4 °F 77% 29.89 in 10.0 mi WSW 9.2 mph - N/A   Mostly Cloudy
9:29 AM 62.6 °F - 55.4 °F 77% 29.89 in 10.0 mi SW 10.4 mph - N/A   Overcast
9:54 AM 62.1 °F - 55.9 °F 80% 29.89 in 10.0 mi SW 10.4 mph - N/A   Overcast
10:20 AM 62.6 °F - 55.4 °F 77% 29.88 in 10.0 mi SW 8.1 mph - N/A   Overcast
10:54 AM 62.1 °F - 55.9 °F 80% 29.87 in 10.0 mi SW 9.2 mph - N/A   Overcast
11:15 AM 62.6 °F - 55.4 °F 77% 29.85 in 10.0 mi SW 6.9 mph - N/A   Overcast
11:54 AM 62.1 °F - 55.9 °F 80% 29.83 in 10.0 mi WSW 8.1 mph - N/A   Overcast
12:54 PM 62.1 °F - 55.0 °F 78% 29.83 in 10.0 mi WNW 16.1 mph 20.7 mph N/A   Overcast
1:30 PM 60.8 °F - 53.6 °F 77% 29.84 in 9.0 mi WNW 13.8 mph 24.2 mph 0.00 in Rain Light Rain
1:54 PM 59.0 °F - 54.0 °F 83% 29.84 in 10.0 mi WNW 13.8 mph 20.7 mph 0.01 in Rain Light Rain
2:20 PM 57.2 °F - 53.6 °F 88% 29.84 in 10.0 mi NNW 10.4 mph - 0.01 in Rain Light Rain
2:28 PM 57.2 °F - 51.8 °F 82% 29.84 in 10.0 mi NNW 8.1 mph - 0.01 in Rain Light Rain
2:54 PM 57.0 °F - 52.0 °F 83% 29.84 in 10.0 mi WNW 11.5 mph - 0.02 in Rain Light Rain
3:54 PM 55.0 °F - 46.0 °F 72% 29.87 in 10.0 mi NNW 19.6 mph 33.4 mph 0.00 in   Overcast
4:02 PM 51.8 °F - 42.8 °F 71% 29.88 in 10.0 mi NNW 21.9 mph 28.8 mph N/A   Overcast
4:10 PM 51.8 °F - 42.8 °F 71% 29.88 in 10.0 mi NNW 18.4 mph 28.8 mph N/A   Overcast
4:54 PM 50.0 °F - 41.0 °F 71% 29.91 in 10.0 mi NNW 12.7 mph - N/A   Partly Cloudy
5:54 PM 48.0 °F - 41.0 °F 77% 29.94 in 10.0 mi NNW 3.5 mph - N/A   Clear
6:54 PM 46.9 °F - 39.9 °F 77% 29.96 in 10.0 mi NW 4.6 mph - N/A   Clear
7:54 PM 46.9 °F - 41.0 °F 80% 29.98 in 10.0 mi NW 3.5 mph - N/A   Mostly Cloudy
8:54 PM 46.0 °F 44.8 °F 37.0 °F 71% 29.99 in 10.0 mi NW 3.5 mph - 0.00 in   Scattered Clouds
9:54 PM 43.0 °F - 37.9 °F 82% 29.99 in 10.0 mi Calm Calm - N/A   Mostly Cloudy
10:54 PM 45.0 °F - 39.0 °F 80% 29.99 in 10.0 mi Calm Calm - N/A   Overcast
11:54 PM 46.9 °F - 35.1 °F 63% 30.00 in 10.0 mi NW 8.1 mph - N/A   Overcast